CAPE
0 0 0 0 0 0 0 0 0 0 0 0 0 0 0 0 0 0 0 0 0 0 0 0 0 2 3 6 7 7 6 5 5 5 4 2 2 1 1 1 1 2 2 4 8 9 10 6 6
0 0 0 0 0 0 0 0 0 0 0 0 0 0 0 0 0 0 0 0 0 0 0 0 0 0 1 3 2 1 1 3 2 3 1 2 0 1 1 0 1 1 3 2 3 4 6 4 4
0 0 0 0 0 0 0 0 0 0 0 0 0 0 0 0 0 0 0 0 0 0 0 0 0 0 0 1 2 0 0 1 1 2 0 0 2 0 0 0 0 1 1 1 1 2 2 1 0
0 0 0 0 0 0 0 0 0 0 0 0 0 0 0 0 0 0 0 0 0 0 0 0 0 0 0 0 0 0 0 0 1 0 0 0 0 0 0 0 0 0 0 0 0 0 0 0 1
0 0 0 0 0 0 0 0 0 0 0 0 0 0 0 0 0 0 0 0 0 0 0 0 0 0 0 0 0 0 0 0 0 0 0 0 0 0 0 0 0 0 1 1 1 1 0 0 0
0 0 0 0 0 0 0 0 0 0 0 0 0 0 0 0 0 0 0 0 0 0 0 0 0 0 0 0 0 0 0 0 0 0 0 0 0 0 0 0 0 0 0 0 2 1 2 2 0
0 0 0 0 0 0 0 0 0 0 0 0 0 0 0 0 0 0 0 0 0 0 0 0 0 0 0 0 0 0 0 0 0 0 0 0 0 0 0 0 0 0 0 0 1 1 1 1 3
0 0 0 0 0 0 0 0 0 0 0 0 0 0 0 0 0 0 0 0 0 0 0 0 0 0 0 0 0 0 0 0 0 0 0 0 0 0 0 0 0 0 0 0 0 0 0 0 0
0 0 0 0 0 0 0 0 0 0 0 0 0 0 0 0 0 0 0 0 0 0 0 0 0 0 0 0 0 0 0 0 0 0 0 0 0 0 0 0 0 0 0 0 0 0 0 0 0
0 0 0 0 0 0 0 0 0 0 0 0 0 0 0 0 0 0 0 0 0 0 0 0 0 0 0 0 0 0 0 0 0 0 0 0 0 0 0 0 0 0 0 0 0 0 0 0 0
0 0 0 0 0 0 0 0 0 0 0 0 0 0 0 0 0 0 0 0 0 0 0 0 0 0 0 0 0 0 0 0 0 0 0 0 0 0 0 0 0 0 0 0 0 0 0 0 0
0 0 0 0 0 0 0 0 0 0 0 0 0 0 0 0 0 0 0 0 0 0 0 0 0 0 0 0 0 0 0 0 0 0 0 0 0 0 0 0 0 0 0 0 0 0 0 0 0
0 0 0 0 0 0 0 0 0 0 0 0 0 0 0 0 0 0 0 0 0 0 0 0 0 0 0 0 0 0 0 0 0 0 0 0 0 0 0 0 0 0 0 0 0 0 0 0 0
0 0 0 0 0 0 0 0 0 0 0 0 0 0 0 0 0 0 0 0 0 0 0 0 0 0 0 0 0 0 0 0 0 0 0 0 0 0 0 0 0 0 0 0 1 0 0 0 0
0 0 0 0 0 0 0 0 0 0 0 0 0 0 0 0 0 0 0 0 0 0 0 0 0 0 0 0 0 0 0 0 0 0 0 0 0 0 0 0 0 0 0 2 2 2 2 0 0
0 0 0 0 0 0 0 0 0 0 0 0 0 0 0 0 0 0 0 0 0 0 0 0 0 0 0 0 0 0 0 0 0 0 0 0 0 0 0 0 0 1 2 2 1 1 2 2 1
0 0 0 0 0 0 0 0 0 0 0 0 0 0 0 0 0 0 0 0 0 0 0 0 0 0 0 0 0 0 0 0 0 0 0 0 0 0 0 0 0 2 2 1 1 1 2 1 1
0 0 0 0 0 0 0 0 0 0 0 0 0 0 0 0 0 0 0 0 0 0 0 0 0 0 0 0 0 0 0 0 0 0 0 0 0 0 0 0 0 2 0 1 1 2 1 2 3
0 0 0 0 0 0 0 0 0 0 0 0 0 0 0 0 0 0 0 0 0 0 0 0 0 0 0 0 0 0 0 0 0 0 0 0 0 0 0 0 0 1 1 3 3 2 3 3 4
0 0 0 0 0 0 0 0 0 0 0 0 0 0 0 0 0 0 0 0 0 0 0 0 0 0 0 0 0 0 0 0 0 0 0 0 0 0 0 0 0 1 2 1 2 6 6 4 5
0 0 0 0 0 0 0 0 0 0 0 0 0 0 0 0 0 0 0 0 0 0 0 0 0 0 0 0 0 0 0 0 0 0 0 0 0 0 0 0 0 2 2 0 2 7 5 5 3
0 0 0 0 0 0 0 0 17 0 0 0 0 0 0 0 0 0 0 0 0 0 0 0 0 0 0 0 0 0 0 0 0 0 0 0 0 0 0 0 1 3 2 0 2 6 6 7 5
0 0 0 0 0 0 1 4 29 0 0 0 0 0 0 0 0 0 0 0 0 0 0 0 0 0 0 0 0 0 0 0 0 0 0 0 0 0 0 0 1 1 2 2 0 6 8 7 8
0 0 1 0 0 0 32 1 97 8 0 0 0 0 0 0 0 0 0 0 0 0 0 0 0 0 0 0 0 0 0 0 0 0 0 0 0 0 0 0 0 0 2 0 4 8 10 11 11
2 16 6 1 12 15 0 0 7 0 0 0 0 0 0 0 0 0 0 0 0 0 0 0 0 0 0 0 0 0 0 0 0 0 0 0 0 0 0 0 0 1 1 1 6 12 9 8 6
10 24 6 1 11 39 43 27 18 0 0 0 0 0 0 0 0 0 0 0 0 0 0 0 0 0 0 0 0 0 0 0 0 0 0 0 0 0 0 0 0 2 2 4 6 12 12 10 6
32 13 41 1 1 5 4 22 3 0 0 0 0 0 0 0 0 0 0 0 0 0 0 0 0 0 0 0 0 0 0 0 0 0 0 0 0 0 0 0 0 1 2 7 11 9 8 7 2
60 35 18 1 0 0 1 0 3 0 17 0 0 0 0 0 0 0 0 0 0 0 0 0 0 0 0 0 0 0 0 0 0 0 0 0 0 0 0 0 0 0 2 8 8 9 8 2 3
45 75 6 1 0 0 0 11 0 16 6 0 0 0 0 0 0 0 0 0 0 0 0 0 0 0 0 0 0 0 0 0 0 0 0 0 0 0 0 0 0 1 6 6 8 2 1 1 0
9 32 0 4 0 0 0 0 0 0 0 0 0 0 0 0 0 0 0 0 0 0 0 0 0 0 0 0 0 0 0 0 0 0 0 0 0 0 0 0 0 1 4 8 1 0 1 1 0
CIN
0 -89 0 0 0 0 0 0 0 0 0 0 0 0 0 0 0 0 0 0 0 0 0 0 0 -1 -1 0 -1 -1 -1 0 0 0 0 0 0 0 0 0 -1 0 0 -1 -1 -1 0 -1 0
0 0 0 0 0 0 0 0 0 0 0 0 0 0 0 0 0 0 0 0 0 0 0 0 0 0 0 0 0 0 -1 -1 -1 0 -1 0 -1 0 -1 0 0 0 -1 -1 -1 0 0 -1 0
0 0 0 0 0 0 0 0 0 0 0 0 0 0 0 0 0 0 0 0 0 0 0 0 0 0 0 0 -1 0 0 0 -1 0 0 -1 0 0 -1 0 0 0 -1 -1 -1 -1 0 0 0
0 0 0 0 0 0 0 0 0 0 0 0 0 0 0 0 0 0 0 0 0 0 0 0 0 0 0 0 0 0 0 0 -1 -1 0 0 0 0 0 0 0 0 0 0 0 0 0 0 0
0 0 0 0 0 0 0 0 0 0 0 0 0 0 0 0 0 0 0 0 0 0 0 0 0 0 0 0 0 0 0 0 0 0 0 0 0 0 0 0 0 0 0 0 0 0 0 0 0
0 0 0 0 0 0 0 0 0 0 0 0 0 0 0 0 0 0 0 0 0 0 0 0 0 0 0 0 0 0 0 0 0 0 0 0 0 0 0 0 0 0 0 0 0 0 0 0 0
0 0 0 0 0 0 0 0 0 0 0 0 0 0 0 0 0 0 0 0 0 0 0 0 0 0 0 0 0 0 0 0 0 0 0 0 0 0 0 0 0 0 0 0 0 0 0 0 0
0 0 0 0 0 0 0 0 0 0 0 0 0 0 0 0 0 0 0 0 0 0 0 0 0 0 0 0 0 0 0 0 0 0 0 0 0 0 0 0 0 0 0 0 0 0 0 0 0
0 0 0 0 0 0 0 0 0 0 0 0 0 0 0 0 0 0 0 0 0 0 0 0 0 0 0 0 0 0 0 0 0 0 0 0 0 0 0 0 0 0 0 0 0 0 0 0 0
0 0 0 0 0 0 0 0 0 0 0 0 0 0 0 0 0 0 0 0 0 0 0 0 0 0 0 0 0 0 0 0 0 0 0 0 0 0 0 0 0 0 0 0 0 0 0 0 0
0 0 0 0 0 0 0 0 0 0 0 0 0 0 0 0 0 0 0 0 0 0 0 0 0 0 0 0 0 0 0 0 0 0 0 0 0 0 0 0 0 0 0 0 0 0 0 0 0
0 0 0 0 0 0 0 0 0 0 0 0 0 0 0 0 0 0 0 0 0 0 0 0 0 0 0 0 0 0 0 0 0 0 0 0 0 0 0 0 0 0 0 0 0 0 0 0 0
0 0 0 0 0 0 0 0 0 0 0 0 0 0 0 0 0 0 0 0 0 0 0 0 0 0 0 0 0 0 0 0 0 0 0 0 0 0 0 0 0 0 0 0 0 0 0 0 0
0 0 0 0 0 0 0 0 0 0 0 0 0 0 0 0 0 0 0 0 0 0 0 0 0 0 0 0 0 0 0 0 0 0 0 0 0 0 0 0 0 0 0 0 -1 -1 0 0 0
0 0 0 0 0 0 0 0 0 0 0 0 0 0 0 0 0 0 0 0 0 0 0 0 0 0 0 0 0 0 0 0 0 0 0 0 0 0 0 0 0 0 -1 0 -1 -1 -1 0 0
0 0 0 0 0 0 0 0 0 0 0 0 0 0 0 0 0 0 0 0 0 0 0 0 0 0 0 0 0 0 0 0 0 0 0 0 0 0 0 0 0 -1 0 0 -1 -1 -1 -1 -1
0 0 0 0 0 0 0 0 0 0 0 0 0 0 0 0 0 0 0 0 0 0 0 0 0 0 0 0 0 0 0 0 0 0 0 0 0 0 0 0 0 0 -1 -1 -1 -1 -1 -1 -2
0 0 0 0 0 0 0 0 0 0 0 0 0 0 0 0 0 0 0 0 0 0 0 0 0 0 0 0 0 0 0 0 0 0 0 0 0 0 0 0 -1 -1 -1 -1 -1 -1 -1 -1 -2
0 0 0 0 0 0 0 0 0 0 0 0 0 0 0 0 0 0 0 0 0 0 0 0 0 0 0 0 0 0 0 0 0 0 0 0 0 0 0 0 0 -1 -1 -1 0 0 -1 -1 -1
0 0 0 0 0 0 0 0 0 0 0 0 0 0 0 0 0 0 0 0 0 0 0 0 0 0 0 0 0 0 0 0 0 0 0 0 0 0 0 0 0 -2 -1 -1 -1 -1 -1 -1 -2
0 0 0 0 0 0 0 0 0 0 0 0 0 0 0 0 0 0 0 0 0 0 0 0 0 0 0 0 0 0 0 0 0 0 0 0 0 0 0 0 -2 -1 -1 -3 -1 -1 0 0 -2
0 0 0 0 0 0 0 0 -4 0 0 0 0 0 0 0 0 0 0 0 0 0 0 0 0 0 0 0 0 0 0 0 0 0 0 0 0 0 0 0 -1 -2 -2 0 -1 0 0 0 0
0 0 0 0 0 0 -1 -3 -4 0 0 0 0 0 0 0 0 0 0 0 0 0 0 0 0 0 0 0 0 0 0 0 0 0 0 0 0 0 0 0 -2 -2 -2 -2 0 0 0 -1 0
0 0 -2 0 0 -1 -6 -7 -4 -9 0 0 0 0 0 0 0 0 0 0 0 0 0 0 0 0 0 0 0 0 0 0 0 0 0 0 0 0 0 0 0 -1 -2 -2 -1 0 0 0 0
-3 -3 -2 -2 -5 -4 0 0 -13 0 0 0 0 0 0 0 0 0 0 0 0 0 0 0 0 0 0 0 0 0 0 0 0 0 0 0 0 0 0 0 0 -2 -2 -2 -1 0 0 0 0
-2 -2 -4 -1 -2 -3 -9 -4 -3 0 0 0 0 0 0 0 0 0 0 0 0 0 0 0 0 0 0 0 0 0 0 0 0 0 0 0 0 0 0 0 0 -2 -2 -2 -1 0 0 0 0
-3 -3 -22 -2 -33 -1 -3 -2 -1 0 0 0 0 0 0 0 0 0 0 0 0 0 0 0 0 0 0 0 0 0 0 0 0 0 0 0 0 0 0 0 0 -2 -2 -1 0 0 0 0 0
-13 -28 -6 -2 0 -1 -1 0 -1 -2 -39 0 0 0 0 0 0 0 0 0 0 0 0 0 0 0 0 0 0 0 0 0 0 0 0 0 0 0 0 0 0 0 -2 0 0 0 0 0 0
-17 -6 -7 -3 0 0 0 -2 0 -3 -79 0 0 0 0 0 0 0 0 0 0 0 0 0 0 0 0 0 0 0 0 0 0 0 0 0 0 0 0 0 0 -3 0 0 0 0 0 0 0
-46 -3 0 -1 0 0 0 0 0 0 0 0 0 0 0 0 0 0 0 0 0 0 0 0 0 0 0 0 0 0 0 0 0 0 0 0 0 0 0 0 0 -2 -1 0 0 0 0 0 0
Wind_Speed
13 12 14 14 18 17 22 20 18 18 17 18 18 18 19 21 22 24 13 14 14 15 15 16 18 18 19 19 20 20 21 21 23 24 25 25 27 28 28 28 28 28 28 27 28 27 27 28 28
12 13 15 18 21 25 22 20 20 19 16 15 17 17 20 21 19 15 14 13 14 15 15 15 16 18 18 18 19 20 21 21 22 23 25 25 27 28 29 29 29 29 29 30 30 30 30 30 31
12 14 19 20 21 27 27 22 18 16 15 16 18 19 19 20 16 13 13 13 14 15 15 16 17 18 18 18 18 20 21 21 22 23 25 27 27 29 30 30 30 30 30 31 31 32 32 33 32
15 16 17 20 26 23 24 20 17 15 17 17 16 20 18 19 14 13 12 13 14 15 16 16 17 18 19 18 18 21 21 22 22 24 25 27 28 29 30 31 31 31 32 33 33 33 34 33 33
16 18 22 23 25 22 21 20 14 15 17 15 17 19 19 15 14 12 12 13 14 16 16 17 18 18 18 18 18 21 22 22 22 24 25 27 29 29 31 32 32 33 34 34 34 35 34 34 35
19 20 24 27 27 23 22 17 14 16 16 16 17 17 19 13 11 12 12 13 14 16 16 17 19 19 19 19 19 22 23 22 23 25 26 28 29 30 32 32 33 34 35 35 34 35 34 34 35
19 22 26 28 27 23 20 14 15 16 15 16 13 19 17 10 10 11 11 13 14 15 16 17 19 19 19 20 20 22 23 22 24 25 26 28 30 31 31 33 34 36 36 35 35 35 35 35 35
18 20 23 22 27 25 17 14 15 15 15 14 14 19 17 8 9 10 11 12 13 14 15 17 18 19 20 19 21 23 22 23 25 25 27 29 28 31 32 34 35 36 36 36 36 36 36 36 35
16 19 23 26 24 21 14 16 15 15 14 15 15 17 16 8 8 9 9 10 12 13 14 16 18 19 20 21 22 22 22 23 24 26 28 29 30 32 35 35 36 36 36 36 35 36 36 36 33
16 22 25 22 22 21 14 15 14 14 13 15 16 16 11 9 8 7 8 9 10 12 13 15 17 20 21 22 23 23 23 24 26 27 29 29 31 32 35 34 35 36 36 36 35 35 35 33 33
18 23 21 21 20 19 15 14 14 15 15 15 13 10 8 7 7 7 7 9 10 11 13 16 18 20 21 23 24 24 24 25 25 27 30 31 32 33 34 35 35 36 35 35 36 35 33 35 35
19 19 20 20 19 17 15 14 15 12 19 16 12 7 7 6 6 6 7 8 10 11 13 15 18 20 22 23 25 25 26 26 27 28 30 32 33 34 36 35 36 36 35 36 35 35 35 34 33
19 19 19 18 18 17 15 16 18 14 16 12 10 7 6 6 6 6 7 8 9 10 12 15 17 20 22 23 25 26 26 27 27 28 30 33 35 35 36 36 35 35 35 35 36 35 34 34 33
19 18 18 17 17 16 17 17 17 15 11 10 8 7 6 5 5 5 6 7 8 9 11 14 17 20 22 24 26 27 26 26 27 29 31 34 35 36 36 35 35 35 35 36 35 34 34 34 33
16 19 18 17 16 19 18 19 18 13 8 8 7 7 6 5 5 5 5 6 7 8 11 14 17 20 22 25 27 27 26 27 28 29 31 34 35 36 36 35 35 34 35 34 33 34 33 33 32
20 21 24 16 16 18 18 27 16 10 7 8 7 7 6 5 4 5 6 6 6 8 10 13 16 19 23 26 27 27 26 27 28 30 32 34 34 35 35 34 33 35 35 32 32 32 33 33 32
19 26 24 24 17 20 17 26 17 9 8 9 8 7 6 5 4 5 5 5 6 8 10 13 17 20 23 25 27 26 26 27 28 30 32 34 33 34 34 33 34 34 31 31 31 32 32 33 32
28 27 24 26 22 20 21 23 17 11 10 10 9 7 6 5 4 4 5 5 6 8 11 14 17 20 23 26 26 26 26 27 28 30 31 32 32 34 34 33 33 32 31 32 32 32 32 32 32
25 27 29 29 25 26 25 22 21 14 12 12 9 7 6 5 4 4 5 5 7 8 11 14 17 21 25 28 29 29 29 28 29 29 30 31 33 33 34 32 33 33 32 32 31 32 32 31 29
26 29 31 31 24 22 26 25 23 19 15 11 10 8 6 3 3 3 4 5 6 8 11 14 18 22 27 28 29 28 28 28 29 27 28 30 32 32 33 33 33 33 33 31 30 31 31 29 28
27 30 34 37 31 24 29 32 24 18 13 12 11 9 5 2 0 2 4 5 6 8 11 14 19 23 27 28 28 28 28 28 28 30 30 32 32 32 32 32 32 32 31 31 29 29 27 29 28
31 28 33 36 33 34 20 38 23 19 18 16 13 8 4 4 2 3 5 6 7 9 12 15 20 24 26 28 28 30 30 32 30 30 31 31 31 31 31 31 32 30 30 29 28 27 25 24 25
31 28 31 33 31 29 25 27 24 20 18 19 16 2 6 4 4 4 7 7 8 9 12 16 20 24 26 27 29 29 30 30 30 32 33 32 32 32 31 31 32 30 29 28 28 24 21 22 23
25 27 30 28 24 26 20 20 18 19 22 23 19 7 4 6 5 6 9 9 9 11 13 17 21 24 26 27 28 29 30 31 32 34 34 34 33 32 31 32 30 29 28 27 24 24 21 18 17
23 30 33 28 22 23 15 14 18 21 23 23 23 12 2 7 8 12 11 10 10 11 14 18 21 24 26 26 28 29 29 31 32 34 34 34 34 33 32 31 30 27 26 26 25 20 17 16 12
25 24 24 25 24 20 14 14 17 18 22 23 19 10 7 9 14 13 11 11 11 12 15 19 22 24 25 27 28 28 30 31 32 33 33 33 33 31 30 27 25 22 27 25 14 15 7 10 11
22 20 18 21 22 17 20 19 14 21 24 20 17 10 10 16 16 13 13 12 13 14 17 20 22 24 25 26 27 29 30 32 32 31 33 33 31 29 26 22 21 25 14 19 17 9 7 12 4
16 16 18 16 18 17 17 18 16 13 20 12 16 13 15 17 15 15 14 14 15 16 18 20 22 24 25 25 27 29 30 31 30 31 33 32 30 25 22 20 20 13 15 12 11 15 9 5 2
15 16 19 17 16 16 15 16 14 10 11 12 16 15 17 17 18 17 16 16 16 18 19 21 22 23 24 26 28 29 30 30 31 32 33 32 25 23 20 17 13 15 16 14 20 9 6 6 8
19 21 20 18 16 19 18 16 15 17 22 18 18 17 18 19 19 18 17 17 18 18 20 21 22 22 25 26 28 29 30 30 31 33 34 30 24 20 22 12 14 16 15 16 12 9 8 7 6
Wind_Direction
47 48 20 7 339 337 323 334 341 339 342 347 351 344 346 347 340 333 22 19 20 17 16 17 11 12 10 10 9 8 6 4 2 360 357 354 351 348 346 342 339 336 333 331 327 324 321 318 315
34 16 2 345 327 318 326 337 334 340 347 1 355 350 344 341 352 4 8 19 20 17 15 16 13 11 12 12 10 8 5 4 1 358 355 352 349 346 343 340 337 335 331 326 322 317 315 312 310
21 3 343 336 327 317 320 332 338 350 353 345 344 349 345 344 3 13 19 26 20 17 18 15 14 13 10 8 8 3 0 359 356 353 350 348 345 343 341 338 335 333 329 324 319 315 312 311 309
360 354 348 331 320 329 328 336 341 344 345 347 350 343 354 352 5 11 36 30 24 21 20 22 19 15 11 9 8 2 359 356 355 352 349 347 345 343 340 338 335 330 325 320 316 314 313 311 310
348 338 326 325 324 331 336 337 343 340 342 345 343 341 346 359 16 43 35 35 30 28 26 26 19 13 11 9 7 359 357 355 355 352 349 347 344 341 337 334 331 326 323 320 318 316 314 312 309
333 333 322 320 326 331 334 339 344 339 341 343 344 347 346 11 35 36 42 39 34 31 30 28 23 17 14 7 3 357 354 355 353 349 347 345 342 339 337 333 329 324 323 321 321 319 317 314 310
332 327 319 322 326 332 339 353 345 343 344 342 358 343 354 23 35 48 48 43 39 38 33 25 18 17 13 7 3 358 356 355 350 348 346 343 340 338 336 331 328 325 324 323 322 320 318 314 312
337 334 328 332 327 331 351 356 349 349 348 4 359 344 346 22 43 55 52 45 41 38 34 26 19 13 9 8 2 357 356 353 351 349 347 344 342 339 334 330 328 325 325 324 322 320 318 315 312
347 332 327 329 333 340 355 348 350 352 353 349 352 349 356 53 54 45 37 30 29 33 35 25 18 12 7 4 358 359 359 357 355 351 348 343 340 335 331 330 329 326 327 325 324 322 319 316 314
339 328 328 337 338 337 347 345 353 353 352 347 352 2 42 64 63 50 38 29 26 24 28 27 18 10 4 1 358 358 359 355 352 349 346 344 340 335 331 331 330 328 328 327 326 323 320 318 314
336 325 334 337 338 342 345 345 349 346 341 345 348 13 50 64 59 50 41 33 29 29 27 22 14 8 4 1 359 358 356 353 352 350 346 342 339 335 333 333 332 330 330 330 327 325 323 317 313
325 333 332 335 340 342 341 348 343 342 342 352 3 43 64 59 58 51 40 33 31 32 28 20 13 9 7 3 360 358 355 353 350 348 348 342 338 334 333 333 331 331 330 328 328 325 322 319 316
327 330 334 338 341 341 345 341 338 340 347 8 27 52 51 52 52 47 35 30 31 31 27 19 15 10 6 3 359 356 355 353 352 350 347 342 337 334 333 334 335 334 332 330 327 325 324 320 318
329 330 333 336 338 340 336 336 339 339 360 8 27 29 38 41 49 41 30 25 29 30 27 19 14 11 7 2 359 356 356 355 353 350 346 341 337 336 337 337 336 334 333 331 329 326 323 321 318
334 327 331 330 332 332 335 327 329 344 354 357 2 7 24 28 37 27 23 23 34 32 26 17 14 11 5 1 358 357 357 356 355 351 346 343 341 340 339 338 338 337 336 333 330 328 325 322 319
325 323 316 328 330 331 331 323 334 339 341 339 346 354 0 13 23 17 15 25 37 34 24 18 13 9 4 360 359 358 358 357 355 352 349 346 344 343 342 342 341 339 336 335 334 331 326 323 320
325 315 318 321 327 326 322 321 333 332 325 325 328 337 344 350 3 3 15 30 40 32 23 17 11 7 3 1 359 359 359 358 357 354 350 348 348 348 347 344 342 342 341 339 335 331 328 324 321
318 319 320 320 326 323 317 315 324 320 311 311 315 322 329 338 346 14 36 44 48 36 22 15 11 6 3 -0 360 359 359 359 357 354 353 352 352 351 348 347 346 346 342 338 335 331 328 324 320
322 319 316 317 320 318 313 312 319 314 303 301 302 304 311 326 5 34 51 53 55 35 24 18 11 7 1 358 357 357 357 358 357 356 356 356 354 352 352 351 348 345 342 338 336 333 329 325 323
324 320 318 319 320 319 316 311 311 309 299 292 293 290 293 312 349 48 60 69 59 40 26 18 11 6 1 0 360 1 360 359 358 0 359 358 355 354 353 351 349 346 343 340 338 334 330 327 324
326 321 320 315 320 313 312 310 308 315 308 305 295 291 279 243 160 48 88 83 63 46 27 18 10 5 3 3 5 3 3 3 3 1 0 357 356 355 354 353 350 347 346 341 340 338 333 327 325
324 332 325 321 317 311 318 309 319 324 321 312 306 284 230 196 169 97 105 93 80 41 29 18 11 6 6 7 6 4 3 1 3 3 0 358 359 358 356 355 352 350 348 346 343 340 336 332 326
327 335 330 328 321 316 310 310 318 327 329 328 322 255 192 187 142 105 109 96 69 47 28 18 12 9 10 10 8 8 8 7 6 3 2 2 1 0 359 357 354 353 352 349 346 345 342 334 328
339 336 331 333 332 322 323 320 326 328 322 320 334 354 156 152 126 95 100 89 66 44 28 20 15 13 13 12 13 12 11 9 7 5 5 4 3 2 2 359 359 358 358 356 353 348 343 341 335
346 337 334 336 339 336 355 345 314 306 309 295 303 348 87 126 116 115 103 89 65 44 30 23 17 15 15 17 15 15 14 11 10 9 8 6 4 5 4 4 3 4 3 359 355 355 351 347 341
347 349 344 341 344 346 360 350 279 307 320 308 329 6 84 105 117 112 98 82 62 46 35 25 20 19 21 19 19 19 16 15 14 13 11 9 8 8 8 10 10 9 5 5 1 359 340 351 348
359 358 356 352 281 334 231 249 321 305 323 331 357 28 85 111 113 99 93 79 62 50 36 28 27 26 24 24 24 21 20 19 18 18 15 13 13 14 17 17 15 13 9 11 5 352 325 3 319
10 11 332 285 357 290 258 244 235 229 316 148 50 57 91 104 97 98 89 75 63 50 40 38 34 31 31 30 27 25 24 24 24 22 19 18 19 25 24 21 20 7 13 339 336 14 288 346 326
12 343 282 271 246 260 240 233 245 161 268 25 52 76 94 95 102 96 85 76 63 56 50 44 40 38 36 33 31 30 29 29 28 25 23 23 30 31 29 22 12 15 16 0 21 16 318 43 60
321 280 260 236 242 270 255 220 316 28 12 48 71 79 89 100 100 95 87 75 71 62 55 50 47 46 40 38 36 34 33 34 31 28 27 32 39 38 35 15 23 23 15 23 17 32 53 52 61